$Date,$Time,DM0201B,DM0203B,DM0205B,DM0207B,DM0209B
11/10/98,00:00:01,,,,,
11/10/98,00:05:01,,,,,
11/10/98,00:10:01,,,,,
11/10/98,00:15:01,,,,,
11/10/98,00:20:01,,,,,
11/10/98,00:25:01,,,,,
11/10/98,00:30:01,,,,,
11/10/98,00:35:01,,,,,
11/10/98,00:40:01,,,,,
11/10/98,00:45:01,,,,,
11/10/98,00:50:01,,,,,
11/10/98,00:55:01,554,168,-13,258,943
11/10/98,01:00:01,541,168,-13,252,943
11/10/98,01:05:01,572,168,-13,252,943
11/10/98,01:10:01,490,168,-13,256,943
11/10/98,01:15:01,531,168,-13,260,943
11/10/98,01:20:01,532,168,-13,262,943
11/10/98,01:25:01,469,169,-13,262,943
11/10/98,01:30:01,509,169,-13,266,943
11/10/98,01:35:01,481,169,-13,268,943
11/10/98,01:40:01,440,169,-13,272,945
11/10/98,01:45:01,505,169,-13,284,945
11/10/98,01:50:01,519,169,-12,292,945
11/10/98,01:55:01,452,169,-12,303,945
11/10/98,02:00:01,453,170,-12,305,945
11/10/98,02:05:01,481,170,-12,307,945
11/10/98,02:10:01,490,170,-12,309,945
11/10/98,02:15:01,473,170,-12,320,945
11/10/98,02:20:01,447,170,-12,341,945
11/10/98,02:25:01,481,160,-12,357,945
11/10/98,02:30:01,504,170,-12,386,945
11/10/98,02:35:01,515,169,-12,393,945
11/10/98,02:40:01,506,162,-12,360,945
11/10/98,02:45:01,534,162,-12,343,945
11/10/98,02:50:01,535,171,-12,328,945
11/10/98,02:55:01,487,171,-12,320,945
11/10/98,03:00:01,435,171,-12,295,945
11/10/98,03:05:01,480,171,-12,285,945
11/10/98,03:10:01,505,171,-12,277,945
11/10/98,03:15:01,401,171,-12,267,945
11/10/98,03:20:01,490,171,-12,253,945
11/10/98,03:25:01,448,171,-12,251,945
11/10/98,03:30:01,416,171,-12,242,945
11/10/98,03:35:01,420,171,-12,243,945
11/10/98,03:40:01,492,171,-12,263,945
11/10/98,03:45:01,456,171,-12,271,945
11/10/98,03:50:01,463,171,-12,270,945
11/10/98,03:55:01,440,171,-12,269,945
11/10/98,04:00:01,505,172,-11,292,945
11/10/98,04:05:01,392,172,-11,284,945
11/10/98,04:10:01,402,178,-11,279,945
11/10/98,04:15:01,450,167,-11,280,945
11/10/98,04:20:01,404,167,-11,265,945
11/10/98,04:25:01,444,167,-11,294,945
11/10/98,04:30:01,422,167,-10,310,945
11/10/98,04:35:01,425,154,-10,305,945
11/10/98,04:40:01,417,171,-10,340,945
11/10/98,04:45:01,403,171,-9,355,945
11/10/98,04:50:01,428,161,-9,358,945
11/10/98,04:55:01,409,161,-9,333,945
11/10/98,05:00:01,415,161,-9,333,945
11/10/98,05:05:01,409,161,-9,333,945
11/10/98,05:10:01,464,162,-9,329,945
11/10/98,05:15:01,394,162,-8,348,945
11/10/98,05:20:01,420,162,-8,348,945
11/10/98,05:25:01,403,162,-8,336,945
11/10/98,05:30:01,389,162,-8,330,945
11/10/98,05:35:01,462,172,-9,336,945
11/10/98,05:40:01,401,170,-9,321,945
11/10/98,05:45:01,472,170,-8,350,945
11/10/98,05:50:01,472,170,-8,348,945
11/10/98,05:55:01,447,159,-8,358,945
11/10/98,06:00:01,429,159,-8,353,947
11/10/98,06:05:01,420,161,-8,365,947
11/10/98,06:10:01,459,162,-8,362,947
11/10/98,06:15:01,377,169,-8,306,947
11/10/98,06:20:01,427,159,-9,276,947
11/10/98,06:25:01,404,169,-9,248,947
11/10/98,06:30:01,393,169,-10,204,947
11/10/98,06:35:01,419,169,-10,204,947
11/10/98,06:40:01,424,169,-10,212,947
11/10/98,06:45:01,361,172,-11,187,947
11/10/98,06:50:01,412,161,-11,192,947
11/10/98,06:55:01,429,161,-11,201,947
11/10/98,07:00:01,383,161,-11,198,947
11/10/98,07:05:01,385,161,-11,234,947
11/10/98,07:10:01,456,161,-11,262,947
11/10/98,07:15:01,478,161,-11,207,947
11/10/98,07:20:01,432,161,-11,245,947
11/10/98,07:25:01,448,161,-11,252,947
11/10/98,07:30:01,396,161,-10,219,947
11/10/98,07:35:01,356,161,-11,201,947
11/10/98,07:40:01,347,161,-10,307,947
11/10/98,07:45:01,374,161,-10,307,947
11/10/98,07:50:01,415,169,-10,282,947
11/10/98,07:55:01,350,158,-10,239,947
11/10/98,08:00:01,352,158,-11,212,947
11/10/98,08:05:01,339,158,-11,204,947
11/10/98,08:10:01,267,158,-11,198,947
11/10/98,08:15:01,328,155,-11,205,947
11/10/98,08:20:01,349,162,-11,180,947
11/10/98,08:25:01,290,162,-11,161,947
11/10/98,08:30:01,335,163,-11,147,947
11/10/98,08:35:01,297,156,-11,141,947
11/10/98,08:40:01,262,166,-11,143,947
11/10/98,08:45:01,268,166,-11,133,947
11/10/98,08:50:01,307,166,-11,129,947
11/10/98,08:55:01,227,166,-11,114,947
11/10/98,09:00:01,294,156,-12,102,947
11/10/98,09:05:01,244,156,-12,93,947
11/10/98,09:10:01,232,162,-12,87,947
11/10/98,09:15:01,242,164,-12,85,947
11/10/98,09:20:01,308,164,-12,83,947
11/10/98,09:25:01,286,164,-12,83,947
11/10/98,09:30:01,316,158,-12,85,947
11/10/98,09:35:01,330,164,-12,85,947
11/10/98,09:40:01,371,164,-12,85,947
11/10/98,09:45:01,358,152,-13,85,949
11/10/98,09:50:01,318,159,-13,85,949
11/10/98,09:55:01,317,159,-13,85,949
11/10/98,10:00:01,305,159,-13,83,949
11/10/98,10:05:01,253,170,-13,81,949
11/10/98,10:10:01,229,158,-13,79,949
11/10/98,10:15:01,242,159,-13,75,949
11/10/98,10:20:01,317,159,-13,71,949
11/10/98,10:25:01,245,158,-13,67,949
11/10/98,10:30:01,265,169,-13,65,949
11/10/98,10:35:01,245,169,-13,61,949
11/10/98,10:40:01,266,169,-13,55,949
11/10/98,10:45:01,262,169,-13,49,949
11/10/98,10:50:01,244,169,-13,45,949
11/10/98,10:55:01,266,169,-13,37,949
11/10/98,11:00:01,251,169,-13,31,949
11/10/98,11:05:01,233,169,-13,29,949
11/10/98,11:10:01,269,169,-13,27,949
11/10/98,11:15:01,207,159,-13,27,949
11/10/98,11:20:01,194,173,-13,27,949
11/10/98,11:25:01,213,162,-13,27,949
11/10/98,11:30:01,224,172,-13,29,949
11/10/98,11:35:01,212,162,-13,33,949
11/10/98,11:40:01,247,173,-13,37,949
11/10/98,11:45:01,236,161,-13,41,949
11/10/98,11:50:01,182,172,-13,45,949
11/10/98,11:55:01,186,162,-13,47,949
11/10/98,12:00:01,169,164,-13,53,949
11/10/98,12:05:01,198,164,-13,59,949
11/10/98,12:10:01,164,163,-13,61,949
11/10/98,12:15:01,171,164,-12,63,949
11/10/98,12:20:01,118,165,-12,63,949
11/10/98,12:25:01,154,175,-12,63,949
11/10/98,12:30:01,147,175,-12,63,949
11/10/98,12:35:01,164,175,-12,61,949
11/10/98,12:40:01,162,177,-12,57,949
11/10/98,12:45:01,179,167,-12,57,949
11/10/98,12:50:01,166,175,-12,55,949
11/10/98,12:55:01,102,165,-12,55,949
11/10/98,13:00:01,159,173,-12,51,949
11/10/98,13:05:01,94,171,-12,49,949
11/10/98,13:10:01,156,176,-13,49,949
11/10/98,13:15:01,118,176,-13,49,949
11/10/98,13:20:01,149,174,-13,49,949
11/10/98,13:25:01,183,175,-13,47,949
11/10/98,13:30:01,104,166,-13,49,949
11/10/98,13:35:01,166,176,-13,53,949
11/10/98,13:40:01,209,176,-13,59,949
11/10/98,13:45:01,196,176,-13,63,949
11/10/98,13:50:01,219,176,-13,69,949
11/10/98,13:55:01,236,176,-13,69,949
11/10/98,14:00:01,256,174,-13,63,949
11/10/98,14:05:01,220,174,-13,57,949
11/10/98,14:10:01,253,174,-13,51,949
11/10/98,14:15:01,232,174,-13,51,949
11/10/98,14:20:01,222,173,-13,53,949
11/10/98,14:25:01,193,173,-13,63,949
11/10/98,14:30:01,234,173,-13,67,949
11/10/98,14:35:01,213,173,-13,67,949
11/10/98,14:40:01,246,173,-13,57,949
11/10/98,14:45:01,176,173,-13,71,949
11/10/98,14:50:01,215,173,-13,76,949
11/10/98,14:55:01,264,173,-13,61,949
11/10/98,15:00:01,273,173,-13,59,949
11/10/98,15:05:01,271,173,-13,59,949
11/10/98,15:10:01,229,173,-13,57,949
11/10/98,15:15:01,238,173,-13,59,949
11/10/98,15:20:01,262,173,-13,67,949
11/10/98,15:25:01,250,173,-13,73,951
11/10/98,15:30:01,225,173,-13,79,951
11/10/98,15:35:01,259,173,-13,85,951
11/10/98,15:40:01,245,172,-13,91,951
11/10/98,15:45:01,247,172,-13,93,951
11/10/98,15:50:01,261,172,-13,93,951
11/10/98,15:55:01,234,172,-13,91,951
11/10/98,16:00:01,230,172,-13,87,951
11/10/98,16:05:01,242,172,-13,89,951
11/10/98,16:10:01,239,172,-13,91,951
11/10/98,16:15:01,225,172,-13,99,951
11/10/98,16:20:01,223,172,-13,107,951
11/10/98,16:25:01,237,170,-13,109,951
11/10/98,16:30:01,256,170,-13,109,951
11/10/98,16:35:01,220,170,-13,111,951
11/10/98,16:40:01,293,170,-13,117,951
11/10/98,16:45:01,273,170,-13,119,951
11/10/98,16:50:01,275,169,-13,125,951
11/10/98,16:55:01,247,169,-13,125,951
11/10/98,17:00:01,254,164,-13,127,951
11/10/98,17:05:01,246,164,-13,123,951
11/10/98,17:10:01,252,164,-13,123,951
11/10/98,17:15:01,232,164,-13,125,951
11/10/98,17:20:01,239,164,-13,121,951
11/10/98,17:25:01,245,164,-13,108,951
11/10/98,17:30:01,201,152,-13,94,951
11/10/98,17:35:01,252,162,-13,84,951
11/10/98,17:40:01,219,162,-13,86,951
11/10/98,17:45:01,242,162,-13,88,951
11/10/98,17:50:01,223,173,-13,90,951
11/10/98,17:55:01,231,162,-13,86,951
11/10/98,18:00:01,276,162,-13,78,951
11/10/98,18:05:01,232,176,-13,76,951
11/10/98,18:10:01,221,161,-13,76,951
11/10/98,18:15:01,257,173,-13,80,951
11/10/98,18:20:01,246,162,-13,80,951
11/10/98,18:25:01,239,161,-13,84,951
11/10/98,18:30:01,256,171,-13,88,951
11/10/98,18:35:01,267,157,-13,88,951
11/10/98,18:40:01,277,171,-13,90,951
11/10/98,18:45:01,242,159,-13,94,951
11/10/98,18:50:01,235,160,-13,106,951
11/10/98,18:55:01,233,169,-13,118,951
11/10/98,19:00:01,266,157,-12,133,951
11/10/98,19:05:01,241,171,-13,149,951
11/10/98,19:10:01,240,157,-12,174,951
11/10/98,19:15:01,288,169,-12,197,951
11/10/98,19:20:01,276,169,-12,204,951
11/10/98,19:25:01,274,169,-12,216,951
11/10/98,19:30:01,286,169,-12,251,951
11/10/98,19:35:01,276,169,-12,251,951
11/10/98,19:40:01,281,169,-12,421,951
11/10/98,19:45:01,320,169,-12,250,951
11/10/98,19:50:01,281,169,-12,236,951
11/10/98,19:55:01,282,169,-13,236,951
11/10/98,20:00:01,248,169,-13,242,951
11/10/98,20:05:01,257,169,-13,209,951
11/10/98,20:10:01,301,169,-13,209,951
11/10/98,20:15:01,285,169,-13,199,951
11/10/98,20:20:01,276,169,-13,201,951
11/10/98,20:25:01,311,169,-13,197,951
11/10/98,20:30:01,279,169,-13,201,951
11/10/98,20:35:01,326,169,-13,207,951
11/10/98,20:40:01,293,169,-13,202,951
11/10/98,20:45:01,304,169,-13,208,951
11/10/98,20:50:01,319,169,-13,227,951
11/10/98,20:55:01,294,159,-13,245,951
11/10/98,21:00:01,337,169,-13,236,951
11/10/98,21:05:01,336,169,-13,211,951
11/10/98,21:10:01,345,169,-13,228,951
11/10/98,21:15:01,313,170,-13,264,951
11/10/98,21:20:01,316,170,-13,267,951
11/10/98,21:25:01,310,160,-13,200,951
11/10/98,21:30:01,290,160,-13,207,951
11/10/98,21:35:01,333,160,-13,250,951
11/10/98,21:40:01,345,174,-13,247,951
11/10/98,21:45:01,320,173,-13,226,951
11/10/98,21:50:01,323,171,-13,224,951
11/10/98,21:55:01,317,171,-13,239,951
11/10/98,22:00:01,285,158,-13,247,951
11/10/98,22:05:01,300,168,-13,241,951
11/10/98,22:10:01,348,167,-13,237,951
11/10/98,22:15:01,317,167,-13,211,951
11/10/98,22:20:01,290,167,-13,207,951
11/10/98,22:25:01,309,167,-13,209,951
11/10/98,22:30:01,322,169,-13,199,951
11/10/98,22:35:01,337,169,-13,195,951
11/10/98,22:40:01,363,169,-13,193,951
11/10/98,22:45:01,356,169,-13,195,951
11/10/98,22:50:01,272,170,-13,195,951
11/10/98,22:55:01,323,170,-13,193,951
11/10/98,23:00:01,335,166,-13,197,951
11/10/98,23:05:01,342,156,-13,207,951
11/10/98,23:10:01,340,156,-13,213,951
11/10/98,23:15:01,298,166,-13,215,951
11/10/98,23:20:01,352,169,-13,227,951
11/10/98,23:25:01,372,168,-13,229,951
11/10/98,23:30:01,372,168,-13,233,951
11/10/98,23:35:01,259,170,-13,241,951
11/10/98,23:40:01,348,158,-13,263,951
11/10/98,23:45:01,288,158,-13,268,953
11/10/98,23:50:01,329,158,-13,247,953
11/10/98,23:55:01,273,158,-13,247,953
11/11/98,00:00:01,331,158,-13,255,953
